weather.gov     
National Weather Service

Regional Weather Roundup
NWS Homepage
This page is being discontinued on March 12, 2014.
The same data is available at this site. Please update your bookmarks.
Thank you, and we apologize for the inconvenience.
Please send an email to SR-SRH.Webmaster@noaa.gov with any concerns.


Current Version
Previous Version:    01  02  03  04  05  06  07  08  09  10  11  12  13  14  15  16  17  18  19  20  21  22  23  24  25  26  27  28  29  30  
   31  32  33  34  35  36  37  38  39  40  41  42  43  44  45  46  47  48  49  50  51  52  53  54  55  56  57  58  59  60  
[Printable]
452
ASUS41 KCLE 241002
RWRCLE
OHIO REGIONAL WEATHER ROUNDUP
NATIONAL WEATHER SERVICE CLEVELAND, OH
600 AM EDT THU APR 24 2014

NOTE: "FAIR" INDICATES FEW OR NO CLOUDS BELOW 12,000 FEET WITH NO
SIGNIFICANT WEATHER AND/OR OBSTRUCTIONS TO VISIBILITY.

OHZ001>008-015>018-024>027-034-035-043-044-241100-
   NORTHWEST OHIO

CITY           SKY/WX    TMP DP  RH WIND       PRES   REMARKS
DEFIANCE       MOCLDY    43  31  62 E5        30.13R
FINDLAY        CLOUDY    44  31  60 E6        30.12R
TOLEDO EXPRESS CLOUDY    41  28  60 E6        30.14R
TOLEDO EXEC    CLOUDY    43  29  57 E5        30.16R
LIMA           CLOUDY    45  30  55 SE8       30.11R
$$

OHZ009>014-019>023-028>033-038-089-241100-
   NORTHEAST OHIO

CITY           SKY/WX    TMP DP  RH WIND       PRES   REMARKS
CLE-HOPKINS    CLOUDY    37  27  67 CALM      30.17S
CLE-LAKEFRONT  MOCLDY    38  23  55 E5        30.14S
CUY CO. ARPT   NOT AVBL
LORAIN-ELYRIA  CLOUDY    39  33  79 CALM      30.15S
ASHTABULA      PTCLDY    26  21  81 CALM      30.15R
AKRON-CANTON   CLOUDY    34  23  64 CALM      30.13S
WOOSTER        LGT RAIN  36  23  59 NE5       30.13S
MANSFIELD      CLOUDY    39  18  42 E6        30.11F
YOUNGSTOWN     PTCLDY    29  19  66 CALM      30.13R
$$

OHZ042-051>053-060>062-070>072-077>081-241100-
  SOUTHWEST OHIO

CITY           SKY/WX    TMP DP  RH WIND       PRES   REMARKS
CINC-COVINGTON CLOUDY    49  34  56 E12       30.07R
CINC-LUNKEN    CLOUDY    48  34  58 E5        30.10R
HAMILTON       CLOUDY    48  33  56 E6        30.10R
DAYTON         CLOUDY    46  28  49 E9        30.11R
WRIGHT-PAT AFB CLOUDY    45  27  49 E6        30.11R
DAYTON GENERAL MOCLDY    45  29  53 E9        30.09R
WILMINGTON     PTCLDY    42  30  62 E6        30.09S
$$

OHZ036-037-039>041-045>050-054>059-063>069-073>076-082>088-241100-
  CENTRAL AND SOUTHEAST OHIO

CITY           SKY/WX    TMP DP  RH WIND       PRES   REMARKS
COLUMBUS       MOCLDY    43  22  43 E5        30.12R
OSU AIRPORT    MOCLDY    41  30  65 E3        30.12R
BOLTON FIELD   NOT AVBL
RICKENBACK AFB NOT AVBL
NEWARK         CLOUDY    40  31  70 CALM      30.12R
MARION         CLOUDY    41  26  55 SE5       30.12R
LANCASTER      CLOUDY    43  30  60 E3        30.12R
ZANESVILLE     CLOUDY    36  30  79 CALM      30.12S
NEW PHILLY     CLOUDY    33  29  85 CALM      30.14S
$$




U.S. Dept. of Commerce
NOAA National Weather Service
1325 East West Highway
Silver Spring, MD 20910
E-mail: w-nws.webmaster@noaa.gov
Page last modified: May 16, 2007
NATIONAL WEATHER SERVICE: for Safety, for Work, for Fun - FOR LIFE